Regional Weather Roundup
Issued by NWS Wakefield, VA

Home | Current Version | Previous Version | Text Only | Print | Product List | Glossary On
Versions: 1 2 3 4 5 6 7 8 9 10 11 12 13 14 15 16 17 18 19 20 21 22 23 24 25 26 27 28 29 30 31 32 33 34 35 36 37 38 39 40 41 42 43 44 45 46 47 48 49 50
573
ASUS41 KAKQ 152015
RWRAKQ

REGIONAL WEATHER ROUNDUP
NATIONAL WEATHER SERVICE WAKEFIELD VA
300 PM EST FRI DEC 15 2017

Note: "fair" indicates few or no clouds below 12,000 feet with no
significant weather and/or obstructions to visibility. * = Denotes
station may not report precipitation (e.g., rain,snow,etc.),
thunder or fog.

VAZ042-051-052>054-056-152100-
NORTHERN VIRGINIA

CITY           SKY/WX    TMP DP  RH WIND       PRES   REMARKS
WASH NATIONAL  LGT SNOW  28  25  88 N3        29.95F FOG
DULLES         LGT SNOW  26  24  92 CALM      29.94S FOG
FORT BELVOIR   FLURRIES  28  21  74 NW5       29.95S
QUANTICO       CLOUDY    30  23  75 N6        29.96S
FREDERICKSBRG* CLOUDY    31  23  73 N6        29.94S
STAFFORD*      LGT SNOW  29  26  86 NW7       29.98S
WARRENTON      CLOUDY    30  23  74 CALM      29.93S
CULPEPER*      CLOUDY    30  23  75 CALM      29.94S
MANASSAS*      CLOUDY    28  24  85 CALM      29.95S
LEESBURG*      FLURRIES  28  27  93 CALM      29.95R
WINCHESTER     CLOUDY    28  19  69 SW3       29.90S
FRONT ROYAL*   CLOUDY    30  19  64 MISG      29.89S
LURAY*         CLOUDY    32  27  80 SW5       29.89S
$$

VAZ048-049-060>072-079>083-152100-
CENTRAL AND SOUTH CENTRAL VIRGINIA

CITY           SKY/WX    TMP DP  RH WIND       PRES   REMARKS
RICHMOND       CLOUDY    37  19  48 NW8       29.91F
CHESTERFIELD*  NOT AVBL
PETERSBURG*    CLOUDY    36  19  51 NW8       29.93S
HANOVER        CLOUDY    33  17  51 NW7       29.94S
TAPPAHANNOCK*  CLOUDY    33  20  59 NW5       29.92F
QUINTON*       CLOUDY    33  20  60 NW5       29.91F
CHARLOTTSVILLE CLOUDY    31  22  69 S3        29.91F
GORDONSVILLE*  CLOUDY    30  23  74 CALM      29.92S
ORANGE*        CLOUDY    30  23  74 CALM      29.93S
LOUISA*        CLOUDY    30  18  61 NW7       29.97R
BUMPASS*       CLOUDY    31  19  59 CALM      29.92S
FARMVILLE*     CLOUDY    36  22  56 SW5       29.93R
CREWE*         MOCLDY    34  20  57 NW5       29.92F
FORT PICKETT*  NOT AVBL
CHASE CITY*    FAIR      35  22  57 W5        29.94R
CLARKSVILLE*   FAIR      36  23  60 W7        29.94S
SOUTH HILL*    MOSUNNY   36  24  63 W5        29.99R
LAWRENCEVILLE* MOCLDY    37  22  56 NW5       29.93R
EMPORIA*       CLOUDY    37  27  65 W7        29.94S
$$

VAZ088>098-152100-
SOUTHEAST VIRGINIA

CITY           SKY/WX    TMP DP  RH WIND       PRES   REMARKS
NORFOLK        CLOUDY    45  37  73 N6        29.85R
VIRGINIA BEACH CLOUDY    46  38  73 NW15      29.83R
NORFOLK NAVAL  CLOUDY    46  36  68 NW15      29.88R
WEST POINT*    CLOUDY   N/A N/A N/A NW6       29.93R
SALUDA*        CLOUDY    37  30  77 NW10      29.89S
NEWPORT NEWS   CLOUDY    43  33  68 NW12      29.88R
LANGLEY AFB    CLOUDY    45  36  70 NW7       29.86R
FORT EUSTIS    CLOUDY    41  31  67 W15       29.86R
WILLIAMSBURG*  CLOUDY    39  28  65 NW12      29.91R
HR EXEC AP*    FAIR      47  37  68 VRB6      29.88R
FRANKLIN*      CLOUDY    42  30  63 NW12      29.90R
US460-WAKEFLD  CLOUDY    40  28  62 VRB5      29.90R
$$

VAZ020-022-025-037-045-152100-
WEST CENTRAL AND SOUTHWEST VIRGINIA

CITY           SKY/WX    TMP DP  RH WIND       PRES   REMARKS
STAUNTON*      CLOUDY    31  24  73 S3        29.89S
WAYNESBORO*    CLOUDY    32  24  72 SW8       29.86F
HOT SPRINGS VA CLOUDY    22  21  96 W26G33    29.76R WCI   5
LYNCHBURG      CLOUDY    35  20  54 VRB5      29.92S
DANVILLE       CLOUDY    37  24  59 W6        29.95S
SOUTH BOSTON*  FAIR      37  21  52 W5        29.95S
MARTINSVILLE   PTSUNNY   39  24  54 CALM      29.95S
ROANOKE        PTSUNNY   37  24  59 W7        29.92F
BLACKSBURG     CLOUDY    33  24  69 NW9       29.92S
DUBLIN*        CLOUDY    34  24  66 W15       29.92S WCI  24
MARION*        CLOUDY    31  23  72 W21G29    29.93R WCI  19
HILLSVILLE*    CLOUDY    30  22  72 W14G25    29.86S WCI  20
RICHLANDS*     CLOUDY    30  19  64 NW7       29.93S
WISE*          MOSUNNY   32  23  69 W9        29.97R
ABINGDON*      CLOUDY    33  23  66 W10G22    29.98R
$$

MDZ021>025-VAZ099-100-152100-
SOUTHERN MARYLAND AND THE DELMARVA PENINSULA

CITY           SKY/WX    TMP DP  RH WIND       PRES   REMARKS
PATUXENT RIVER HAIL      32  24  72 N8        29.89F
BAY BRIDGE APT LGT SNOW  28  23  80 MISG      29.94S FOG
LEONARDTOWN    CLOUDY    32  23  69 N3        29.91F
DOVER          FLURRIES  28  20  72 N13       29.92S WCI  18
GEORGETOWN     CLOUDY    34  25  69 N9        29.89F
EASTON         PTSUNNY   30  19  64 N9        29.95S
CAMBRIDGE      CLOUDY    32  21  64 N9        29.90F
SALISBURY      CLOUDY    36  28  73 N9        29.87R
OCEAN CITY     CLOUDY    42  33  70 NE6       29.87F
WALLOPS ISLAND CLOUDY    44  36  73 NE13      29.84F
ACCOMACK*      DRIZZLE   45  39  80 N7G21     29.84R
$$

NCZ012>017-030>032-152100-
NORTH CENTRAL AND EASTERN NORTH CAROLINA

CITY           SKY/WX    TMP DP  RH WIND       PRES   REMARKS
ROANOKE RAPIDS FAIR      43  30  61 NW7       29.91S
RALEIGH        CLOUDY    42  28  57 W7        29.94S
ELIZABETH CITY CLOUDY    57  40  52 W17G25    29.83S
AHOSKIE*       CLOUDY    45  32  60 CALM      29.90S
EDENTON*       CLOUDY    57  38  49 W13       29.88R
CURRITUCK*     CLOUDY    57  40  51 SW12G18   29.83S
KILL DEVIL HLS CLOUDY    57  36  45 SW9G20    29.82R
MANTEO         CLOUDY    56  38  49 W13G18    29.84S
CAPE HATTERAS  CLOUDY    59  42  53 W15G24    29.88R
TARBORO*       NOT AVBL
GOLDSBORO      CLOUDY    53  35  50 W14       29.88S
WASHINGTON     MOSUNNY   57  35  43 W13       29.88S
GREENVILLE     CLOUDY    54  36  50 W6        29.92R
NEW BERN       MOSUNNY   59  37  44 W12       29.89R
WILMINGTON     CLOUDY    60  39  45 W14       29.91S
$$

VAZ048-152100-
ELSEWHERE

CITY           SKY/WX    TMP DP  RH WIND       PRES   REMARKS
HARRISBURG PA  LGT SNOW  26  23  88 E3        29.92F VSB 3/4
BALTIMORE      LGT SNOW  26  25  96 CALM      29.93F VSB 3/4
ANNAPOLIS      LGT SNOW  28  27  96 N7        29.94F FOG
ANDREWS AFB    FLURRIES  26  22  85 CALM      29.91F
PHILADELPHIA   SNOW      25  21  85 NW6       29.94F VSB 1/2
HENDERSON NC   MOSUNNY   36  23  59 W7        29.94R
GREENSBORO     CLOUDY    39  26  59 NW6       29.92F
ROCKY MOUNT    CLOUDY    46  31  55 NW10      29.91R
$$

VAZ100-152100-
MARINE

STATION/POSITION TIME  TEMP    WIND        PRES    WAVE   SWELL
                       AIR SEA DIR/SP/G            HT/PER HT/PER
                 (UTC) (F)     (DEG/KT/KT) (MB)    (FT/S) (FT/S)
BRANDYWINE LGT   1948   31      40/ 12/ 15 1012.9F
CAPE MAY NJ      1948   31 44   30/  4/  7 1012.0F
LEWES DE         1948   35 41   40/ 13/ 15 1012.3F
15NM E FENWICK I 1950   43 52   30/ 10/ 12 1011.4F   2/ 8   2/ 8
OCEAN-CITY-INLET 1948   42 43   30/  5/  8   N/A
WACHAPREAGUE VA  1948   45 38   50/  4/  7 1010.0F
THOMAS POINT MD  2000   28 44  350/ 12/ 14   N/A
GOOSES REEF MD   2000   32 45   40/ 14/ 17 1013.2    1/ 3
COVE POINT MD    1948   31      10/ 12/ 15 1013.0F
SOLOMONS ISLAND  1948   32 45  350/  8/ 10 1012.1F
BISHOPS HEAD MD  1948   33 35  360/  6/ 11 1012.3R
PINEY POINT MD   1942           20/  7/  8   N/A
POTOMAC MD       2000   35 45  350/ 10/ 12 1011.6    1
CAMBRIDGE MD     1942   31 39              1013.3F
LEWISETTA VA     1948   34 40  340/  8/ 11 1012.6R
RAPPAHANNOCK LGT 1948          320/ 18/ 19 1011.7R
STINGRAY PT      2000   38 45  360/ 14/ 16 1012.1    2/ 3
YORK RVR RNG VA  1948   39     340/ 14/ 16 1011.9R
YORKTOWN VA      1948   40 46  320/ 13/ 15 1011.6R
JAMESTOWN VA     2000      45  330/ 12/ 16   N/A     0
DOMINION TERM VA 1948   43     320/ 16/ 19 1011.3R
KIPTOPEKE VA     1948      44  360/  9/ 13   N/A
CAPE HENRY VA    1948   44     300/ 17/ 20   N/A
WILLOUBY STN VA  1948          330/  9/ 10 1011.1R
S CRANEY ISL VA  1948   44     300/ 11/ 15 1010.8R
CAPE HENRY BUOY  2000      53                N/A     3/ 5
1ST LANDING BUOY 2000   42 47  340/ 19/ 23 1010.6    2/ 3
CAPE CHARLES BUO 1951      51                N/A     3/ 4
64NM E OF VA BCH 1950   58 60  210/ 14/ 19 1009.4F   4/ 5   2/11
DUCK PIER NC     1948   54 54  250/ 16/ 19 1009.5R
44100 DUCK FRF   1945      55                N/A     4/ 5
44056 DUCK FRF   2000      55                N/A     3/ 5
OREGON INLET NC  1942   52 49  210/ 13/ 15 1010.5R
HATTERAS NC      1948   58 55  240/ 12/ 16 1011.5R
DIAMOND SHLS NC  1950   63 74  240/ 23/ 31 1011.3F   6/ 6
CAPE LOOKOUT NC  2000          250/ 13/ 16 1012.6R
$$




USA.gov is the U.S. government's official web portal to all federal, state and local government web resources and services.